Simultaneous Nadir Overpasses (SNOs) Predictions

Prediction of SNOs between GOES-14 and AQUA Satellite Orbit:

Table of predicted SNOs for the next 14.0 days since TLE Epoch: 3/13/2020
Index Date Time (GOES-14) GOES-14 Lat,Lon AQUA Lat,Lon Distance(km) Time Diff (sec)
1 03/15/2020 08:29:52 0.11,-104.17 -0.13,-103.20 111.37 80
2 03/15/2020 20:51:15 -0.11,-104.06 -1.03,-108.38 490.81 80
3 03/17/2020 08:17:41 0.11,-104.18 -0.73,-100.24 447.72 80
4 03/17/2020 20:39:04 -0.11,-104.06 -0.42,-105.42 154.76 80
5 03/19/2020 20:24:13 -0.12,-104.06 0.20,-102.46 181.49 80
6 03/20/2020 08:45:29 0.12,-104.17 0.86,-107.63 393.88 80
7 03/22/2020 08:33:19 0.12,-104.18 0.24,-104.67 56.82 80
8 03/24/2020 08:23:48 0.12,-104.19 -0.38,-101.72 280.41 80
9 03/24/2020 20:45:11 -0.12,-104.10 -0.70,-106.91 319.11 80
10 03/26/2020 20:30:20 -0.12,-104.11 -0.07,-103.95 17.91 80




NCC Satellite Simultaneous Nadir Overpasses (SNOs) Prediction Service
